Friday, February 23, 2018, 3:04 PM EST
Back to Local

KDDH, Bennington Morse State Airport

Location: Bennington, VT, United States Lat: 42.883
Local Time: 3:04 PM EST (20:04 GMT) Lon: -73.25
Time Zone: US/Eastern Elev: 826 ft

Show me the last for .
Show Decoded

2018-02-23 14:13 METAR KDDH 231913Z AUTO 13012G18KT 7SM -RA BKN022 OVC040 02/M03 A3035 RMK AO2
                 RAB06 P0000 T00171028 =
2018-02-23 13:54 METAR KDDH 231854Z AUTO 13014G22KT 10SM SCT024 BKN031 OVC042 02/M03 A3036 RMK
                 AO2 SLP291 T00171033 =
2018-02-23 13:49 METAR KDDH 231849Z AUTO 14012G19KT 10SM SCT025 BKN031 OVC044 02/M03 A3037 RMK
                 AO2 =
2018-02-23 13:27 METAR KDDH 231827Z AUTO 12009G19KT 10SM BKN025 OVC030 02/M03 A3039 RMK AO2
                 T00171033 =
2018-02-23 12:54 METAR KDDH 231754Z AUTO 13012KT 10SM BKN032 OVC047 02/M04 A3043 RMK AO2
                 RAB1658E19 SLP314 P0000 60000 T00171039 10028 21072 58037 =
2018-02-23 11:54 METAR KDDH 231654Z AUTO 15014G23KT 10SM BKN036 OVC050 02/M06 A3047 RMK AO2
                 RAB06E22 PRESFR SLP329 P0000 T00171056 =
2018-02-23 10:54 METAR KDDH 231554Z AUTO 16008G16KT 10SM SCT060 BKN075 OVC110 02/M08 A3051 RMK
                 AO2 SLP341 T00221078 =
2018-02-23 09:54 METAR KDDH 231454Z AUTO 00000KT 10SM FEW110 02/M06 A3054 RMK AO2 SLP353
                 T00221056 58021 =
2018-02-23 08:54 METAR KDDH 231354Z AUTO 00000KT 10SM BKN085 OVC110 M01/M04 A3056 RMK AO2 SLP359
                 T10111044 =
2018-02-23 07:54 METAR KDDH 231254Z AUTO 00000KT 10SM FEW110 M05/M06 A3060 RMK AO2 SLP373
                 T10501056 =
2018-02-23 06:54 METAR KDDH 231154Z AUTO 00000KT 8SM CLR M07/M09 A3061 RMK AO2 SLP378 70022 I1000
                 I6000 T10721089 11033 21078 56007 =
2018-02-23 06:20 METAR KDDH 231120Z AUTO 00000KT 4SM BR SCT004 M08/M09 A3061 RMK AO2 T10781094 =
2018-02-23 06:02 METAR KDDH 231102Z AUTO 00000KT 6SM BR BKN004 M06/M08 A3061 RMK AO2 T10611078 =
2018-02-23 05:54 METAR KDDH 231054Z AUTO 00000KT 7SM SCT004 M07/M09 A3061 RMK AO2 SLP378
                 T10671089 =
2018-02-23 05:34 METAR KDDH 231034Z AUTO 00000KT 6SM BR CLR M07/M08 A3061 RMK AO2 T10671083 =
2018-02-23 05:24 METAR KDDH 231024Z AUTO 00000KT 2SM BR CLR M07/M08 A3062 RMK AO2 T10671083 =
2018-02-23 04:54 METAR KDDH 230954Z AUTO 00000KT 5SM BR CLR M06/M08 A3063 RMK AO2 SLP384 I1000
                 T10611078 =
2018-02-23 04:06 METAR KDDH 230906Z AUTO 00000KT 8SM SCT006 M04/M06 A3064 RMK AO2 T10441061 =
2018-02-23 03:54 METAR KDDH 230854Z AUTO 00000KT 10SM BKN006 M04/M06 A3063 RMK AO2 CIG 004V009
                 SLP384 I1000 I3000 T10391056 56018 =
2018-02-23 02:54 METAR KDDH 230754Z AUTO 01003KT 10SM OVC005 M03/M05 A3064 RMK AO2 SLP386
                 T10331050 =
2018-02-23 02:29 METAR KDDH 230729Z AUTO 00000KT 10SM OVC006 M03/M06 A3066 RMK AO2 T10331056 =
2018-02-23 01:54 METAR KDDH 230654Z AUTO 00000KT 10SM OVC005 M03/M05 A3069 RMK AO2 SLP402
                 T10331050 =
2018-02-23 01:21 METAR KDDH 230621Z AUTO 00000KT 10SM OVC005 M03/M05 A3068 RMK AO2 T10331050 =
2018-02-23 00:54 METAR KDDH 230554Z AUTO 35003KT 7SM OVC006 M04/M06 A3065 RMK AO2 SLP390 I1000
                 I6000 T10391056 11022 21044 56004 =
2018-02-22 23:54 METAR KDDH 230454Z AUTO 00000KT 6SM BR BKN007 M04/M06 A3066 RMK AO2 SLP393
                 T10441056 400391044 =
2018-02-22 23:49 METAR KDDH 230449Z AUTO 00000KT 7SM BKN007 M04/M06 A3065 RMK AO2 =
2018-02-22 23:09 METAR KDDH 230409Z AUTO 00000KT 10SM SCT009 M03/M05 A3066 RMK AO2 T10281050 =
2018-02-22 23:02 METAR KDDH 230402Z AUTO 00000KT 10SM BKN009 M03/M05 A3066 RMK AO2 CIG 006V011
                 T10281050 =
2018-02-22 22:54 METAR KDDH 230354Z AUTO 00000KT 10SM BKN010 M03/M05 A3066 RMK AO2 CIG 006V011
                 SLP394 T10331050 =
2018-02-22 22:50 METAR KDDH 230350Z AUTO 00000KT 10SM OVC010 M04/M05 A3067 RMK AO2 CIG 006V011 =
2018-02-22 21:54 METAR KDDH 230254Z AUTO 00000KT 10SM OVC008 M03/M04 A3066 RMK AO2 SLP392
                 T10281044 50014 =
2018-02-22 20:54 METAR KDDH 230154Z AUTO 00000KT 10SM OVC006 M02/M04 A3066 RMK AO2 SLP392
                 T10221039 =
2018-02-22 19:54 METAR KDDH 230054Z AUTO 00000KT 8SM OVC007 M03/M05 A3064 RMK AO2 CIG 004V009
                 SLP385 T10331050 =
2018-02-22 19:37 METAR KDDH 230037Z AUTO 00000KT 8SM BKN007 BKN011 M03/M05 A3064 RMK AO2
                 T10331050 =
2018-02-22 19:29 METAR KDDH 230029Z AUTO 00000KT 8SM FEW007 FEW011 M04/M05 A3064 RMK AO2
                 T10391050 =
2018-02-22 19:25 METAR KDDH 230025Z AUTO 00000KT 2 1/2SM BR FEW011 M03/M05 A3064 RMK AO2
                 T10331050 =
2018-02-22 19:15 METAR KDDH 230015Z AUTO 00000KT 1/2SM FZFG VV011 M03/M04 A3064 RMK AO2 T10331044
                 =
2018-02-22 19:11 METAR KDDH 230011Z AUTO 00000KT 1 3/4SM BR CLR M03/M04 A3064 RMK AO2 T10281039 =
2018-02-22 18:54 METAR KDDH 222354Z AUTO 00000KT 4SM BR CLR M02/M04 A3062 RMK AO2 SLP378 60019
                 T10221039 11006 21022 58007 =
2018-02-22 17:54 METAR KDDH 222254Z AUTO 00000KT 9SM FEW009 SCT022 OVC100 M01/M03 A3062 RMK AO2
                 SLP379 T10111033 =
2018-02-22 17:52 METAR KDDH 222252Z AUTO 00000KT 9SM SCT009 SCT022 OVC100 M01/M03 A3062 RMK AO2 =
2018-02-22 17:40 METAR KDDH 222240Z AUTO 00000KT 10SM BKN009 BKN022 OVC100 M01/M03 A3063 RMK AO2
                 T10111033 =
2018-02-22 16:54 METAR KDDH 222154Z AUTO 00000KT 10SM FEW006 BKN010 OVC110 M01/M03 A3064 RMK AO2
                 SNE40 SLP385 P0001 T10061033 =
2018-02-22 16:23 METAR KDDH 222123Z AUTO 00000KT 3SM -SN BR FEW006 BKN036 OVC046 M01/M03 A3064
                 RMK AO2 P0001 T10111033 =
2018-02-22 16:15 METAR KDDH 222115Z AUTO 00000KT 2SM -SN BR FEW004 BKN028 OVC044 M01/M03 A3064
                 RMK AO2 P0001 T10061028 =
2018-02-22 16:00 METAR KDDH 222100Z AUTO 00000KT 1SM -SN BR SCT004 OVC017 M01/M03 A3064 RMK AO2
                 P0001 T10111028 =
2018-02-22 15:54 METAR KDDH 222054Z AUTO 33003KT 3/4SM -SN BR SCT005 OVC013 M01/M03 A3064 RMK AO2
                 SLP385 P0006 60018 T10111028 51009 =
2018-02-22 15:42 METAR KDDH 222042Z AUTO VRB03KT 1/2SM SN FZFG FEW005 OVC009 M01/M03 A3064 RMK
                 AO2 P0006 T10111028 =

Support USWX by starting your Amazon purchase here.